Regional Weather Roundup
Issued by NWS

Home | Current Version | Previous Version | Graphics & Text | Print | Product List | Glossary On
Versions: 1 2 3 4 5 6 7 8 9 10 11 12 13 14 15 16 17 18 19 20 21 22 23 24 25 26 27 28 29 30 31 32 33 34 35 36 37 38 39 40 41 42 43 44 45 46 47 48 49 50
000
ASUS44 KMEG 220610
RWRTN
TENNESSEE HOURLY STATE WEATHER ROUNDUP
NATIONAL WEATHER SERVICE MEMPHIS TN
1200 AM CST WED FEB 22 2017

TNZ002-004-019-021-049-052-054-088>092-220700-
WEST TENNESSEE

CITY           SKY/WX    TMP DP  RH WIND       PRES   REMARKS
MEMPHIS INTL   CLOUDY    61  59  93 E8        29.87F
NWS MEMPHIS      N/A     59 N/A N/A MISG        N/A
JACKSON        CLOUDY    59  59 100 CALM      29.92S
UNION CITY     CLOUDY   N/A N/A N/A CALM      29.90S
PARIS          PTCLDY    55  55 100 SE5       29.92S
HUNTINGDON     CLOUDY    59  57  94 CALM      29.91F
$$

TNZ008-025-027-028-033-062-065-066-220700-
NORTH MIDDLE TENNESSEE

CITY           SKY/WX    TMP DP  RH WIND       PRES   REMARKS
NASHVILLE      CLOUDY    58  55  90 CALM      29.94F
PORTLAND       CLOUDY    55  55 100 CALM      29.94F
CLARKSVILLE    CLOUDY    58  55  90 SE6       29.93F
SMYRNA         CLOUDY    54  54 100 NW3       29.95S FOG
COOKEVILLE     MOCLDY    55  54  94 CALM      29.93F
GALLATIN       CLOUDY    55  54  94 CALM      29.97F
CROSSVILLE     CLOUDY    54  52  93 S3        29.97F
$$

TNZ061-075-076-078-094-096-097-220700-
SOUTH MIDDLE TENNESSEE

CITY           SKY/WX    TMP DP  RH WIND       PRES   REMARKS
FAYETTEVILLE   CLOUDY    57  57 100 E6        29.90F
TULLAHOMA      CLOUDY    57  55  94 SE7       29.93F
WINCHESTER     CLOUDY    57  55  94 SE10      29.93F
MCMINNVILLE    MOCLDY    61  55  82 S5        29.93F
COLUMBIA       CLOUDY   N/A N/A N/A CALM      29.92S
SHELBYVILLE    CLOUDY    57  55  94 CALM      29.93F
$$

TNZ017-018-042-046-047-220700-
NORTHEAST TENNESSEE

CITY           SKY/WX    TMP DP  RH WIND       PRES   REMARKS
TRI CITIES     CLOUDY    58  43  57 VRB3      30.01F
ELIZABETHTON   CLOUDY    59  43  55 NE8       30.02F
$$

TNZ012-013-036-069-073-074-220700-
CENTRAL EAST TENNESSEE

CITY           SKY/WX    TMP DP  RH WIND       PRES   REMARKS
KNOXVILLE      LGT RAIN  58  50  75 W3        29.95F
OAK RIDGE      LGT RAIN  57  54  89 CALM      29.98S
GATLINBURG     CLOUDY    55  46  71 SW3       29.95F
MORRISTOWN     CLOUDY    59  48  67 E5        29.96F
JACKSBORO      FOG       55  55 100 CALM      30.00S VSB 3/4
$$

TNZ083-085-099-220700-
SOUTHEAST TENNESSEE

CITY           SKY/WX    TMP DP  RH WIND       PRES   REMARKS
CHATTANOOGA    LGT RAIN  57  55  93 NE5       29.94F FOG
$$

SKY/WX REPORTED AS FAIR MEANS FEW OR NO CLOUDS BELOW
12 THOUSAND FEET.




USA.gov is the U.S. government's official web portal to all federal, state and local government web resources and services.